Total_Precipitation_Accumulation
0.00 0.00 0.00 0.00 0.00 0.00 0.00 0.00 0.00 0.00 0.00 0.00 0.00 0.00 0.00 0.00 0.02 0.03 0.01 0.00 0.06 0.10 0.04 0.02 0.02 0.02 0.02 0.03 0.05 0.03 0.08 0.04 0.04 0.06 0.06 0.03 0.04 0.02 0.02 0.01 0.02 0.04 0.04 0.03 0.03 0.06 0.02 0.00 0.00 0.00 0.00 0.00 0.00 0.00
0.00 0.00 0.00 0.00 0.00 0.00 0.00 0.00 0.00 0.00 0.00 0.00 0.00 0.01 0.01 0.01 0.02 0.03 0.02 0.00 0.02 0.07 0.04 0.01 0.01 0.01 0.02 0.02 0.07 0.12 0.14 0.11 0.15 0.16 0.13 0.12 0.09 0.07 0.04 0.04 0.00 0.02 0.02 0.01 0.03 0.02 0.00 0.00 0.00 0.00 0.00 0.00 0.00 0.00
0.00 0.00 0.00 0.00 0.00 0.00 0.00 0.00 0.00 0.00 0.00 0.01 0.01 0.01 0.01 0.01 0.01 0.03 0.02 0.00 0.01 0.02 0.01 0.00 0.00 0.00 0.00 0.00 0.01 0.06 0.07 0.06 0.07 0.08 0.23 0.26 0.25 0.12 0.08 0.03 0.00 0.00 0.00 0.01 0.01 0.00 0.00 0.00 0.00 0.00 0.00 0.00 0.00 0.00
0.00 0.00 0.00 0.00 0.00 0.00 0.00 0.00 0.00 0.01 0.01 0.01 0.01 0.01 0.02 0.01 0.02 0.03 0.01 0.00 0.01 0.02 0.01 0.00 0.00 0.00 0.00 0.00 0.00 0.01 0.03 0.05 0.19 0.30 0.53 0.55 0.40 0.18 0.13 0.03 0.03 0.02 0.03 0.03 0.00 0.00 0.00 0.00 0.00 0.00 0.00 0.00 0.00 0.00
0.00 0.00 0.00 0.00 0.00 0.00 0.01 0.01 0.01 0.01 0.01 0.01 0.01 0.01 0.02 0.03 0.03 0.03 0.00 0.00 0.00 0.00 0.00 0.00 0.00 0.00 0.00 0.00 0.00 0.00 0.00 0.01 0.08 0.24 0.39 0.33 0.19 0.15 0.11 0.09 0.05 0.00 0.00 0.00 0.00 0.00 0.01 0.00 0.00 0.00 0.00 0.00 0.00 0.00
0.00 0.00 0.00 0.00 0.00 0.01 0.01 0.01 0.01 0.01 0.01 0.01 0.01 0.02 0.02 0.03 0.05 0.00 0.00 0.00 0.00 0.06 0.15 0.08 0.00 0.00 0.00 0.00 0.00 0.00 0.00 0.00 0.02 0.11 0.17 0.18 0.09 0.13 0.24 0.10 0.01 0.00 0.00 0.00 0.01 0.01 0.00 0.00 0.00 0.00 0.00 0.00 0.00 0.00
0.00 0.01 0.01 0.00 0.00 0.01 0.00 0.00 0.01 0.01 0.02 0.02 0.02 0.02 0.03 0.04 0.05 0.02 0.00 0.03 0.06 0.06 0.11 0.06 0.00 0.00 0.00 0.00 0.00 0.00 0.00 0.00 0.01 0.06 0.11 0.08 0.04 0.18 0.30 0.15 0.01 0.00 0.00 0.00 0.00 0.01 0.00 0.01 0.01 0.00 0.00 0.00 0.00 0.00
0.00 0.01 0.01 0.01 0.01 0.01 0.01 0.01 0.00 0.01 0.02 0.02 0.02 0.03 0.04 0.04 0.04 0.02 0.00 0.01 0.09 0.11 0.12 0.05 0.00 0.00 0.00 0.00 0.00 0.00 0.00 0.00 0.04 0.09 0.11 0.12 0.10 0.23 0.32 0.08 0.00 0.00 0.00 0.00 0.00 0.00 0.02 0.04 0.01 0.00 0.00 0.00 0.00 0.00
0.00 0.00 0.01 0.01 0.01 0.01 0.01 0.01 0.01 0.02 0.02 0.03 0.07 0.06 0.01 0.01 0.00 0.00 0.00 0.01 0.03 0.08 0.09 0.05 0.00 0.00 0.00 0.00 0.00 0.00 0.01 0.05 0.05 0.08 0.03 0.06 0.10 0.12 0.03 0.00 0.00 0.00 0.01 0.03 0.01 0.00 0.00 0.00 0.00 0.00 0.00 0.00 0.00 0.00
0.00 0.00 0.01 0.01 0.01 0.01 0.01 0.02 0.02 0.03 0.04 0.14 0.11 0.02 0.00 0.00 0.00 0.00 0.01 0.04 0.11 0.18 0.19 0.11 0.01 0.00 0.00 0.00 0.00 0.01 0.04 0.05 0.08 0.02 0.03 0.10 0.05 0.00 0.00 0.00 0.01 0.04 0.05 0.03 0.02 0.01 0.00 0.00 0.00 0.00 0.00 0.00 0.01 0.01
0.01 0.01 0.01 0.01 0.02 0.02 0.03 0.03 0.04 0.09 0.16 0.11 0.05 0.02 0.00 0.01 0.02 0.01 0.01 0.04 0.06 0.17 0.14 0.03 0.00 0.00 0.00 0.00 0.02 0.06 0.08 0.07 0.10 0.00 0.04 0.04 0.00 0.00 0.00 0.02 0.04 0.03 0.03 0.03 0.03 0.02 0.02 0.02 0.01 0.01 0.02 0.02 0.01 0.04
0.01 0.02 0.02 0.02 0.03 0.03 0.04 0.04 0.07 0.22 0.15 0.11 0.08 0.06 0.02 0.02 0.02 0.05 0.07 0.02 0.02 0.01 0.00 0.00 0.02 0.02 0.05 0.09 0.27 0.27 0.29 0.21 0.14 0.08 0.15 0.10 0.04 0.02 0.02 0.03 0.03 0.04 0.06 0.05 0.05 0.04 0.04 0.04 0.05 0.05 0.02 0.01 0.02 0.01
0.02 0.03 0.03 0.03 0.04 0.05 0.05 0.06 0.09 0.16 0.39 0.34 0.47 0.60 0.36 0.17 0.14 0.13 0.05 0.02 0.00 0.00 0.02 0.06 0.08 0.11 0.11 0.19 0.30 0.29 0.31 0.21 0.13 0.13 0.09 0.03 0.01 0.05 0.08 0.06 0.03 0.04 0.05 0.03 0.02 0.03 0.04 0.01 0.01 0.00 0.00 0.00 0.00 0.00
0.03 0.04 0.05 0.05 0.04 0.05 0.06 0.07 0.08 0.30 0.50 0.68 0.53 0.44 0.18 0.09 0.06 0.00 0.00 0.00 0.00 0.00 0.01 0.04 0.05 0.06 0.06 0.12 0.13 0.15 0.10 0.09 0.13 0.11 0.07 0.06 0.05 0.05 0.05 0.02 0.02 0.01 0.00 0.00 0.00 0.00 0.01 0.02 0.01 0.00 0.00 0.00 0.00 0.00
0.05 0.05 0.06 0.04 0.04 0.04 0.05 0.07 0.15 0.51 0.60 0.77 0.51 0.25 0.11 0.01 0.00 0.00 0.00 0.01 0.02 0.02 0.04 0.05 0.06 0.05 0.03 0.07 0.07 0.09 0.09 0.08 0.06 0.03 0.01 0.01 0.01 0.01 0.00 0.00 0.00 0.00 0.00 0.00 0.00 0.00 0.00 0.00 0.00 0.00 0.00 0.00 0.00 0.03
0.06 0.09 0.04 0.03 0.05 0.08 0.09 0.19 0.33 0.48 0.96 0.73 0.50 0.17 0.02 0.00 0.00 0.01 0.01 0.01 0.05 0.04 0.05 0.06 0.11 0.12 0.05 0.08 0.05 0.05 0.04 0.01 0.00 0.00 0.00 0.00 0.00 0.00 0.00 0.00 0.00 0.00 0.00 0.00 0.00 0.00 0.00 0.00 0.00 0.00 0.00 0.00 0.01 0.01
0.16 0.12 0.00 0.00 0.01 0.08 0.25 0.39 0.35 0.49 0.53 0.42 0.18 0.03 0.02 0.01 0.01 0.01 0.01 0.00 0.03 0.04 0.03 0.09 0.18 0.10 0.07 0.06 0.02 0.01 0.00 0.00 0.00 0.00 0.00 0.00 0.00 0.00 0.00 0.00 0.00 0.00 0.00 0.00 0.00 0.00 0.00 0.00 0.00 0.00 0.00 0.00 0.00 0.01
0.25 0.06 0.01 0.07 0.18 0.24 0.22 0.27 0.52 0.58 0.38 0.09 0.01 0.00 0.01 0.01 0.00 0.00 0.00 0.00 0.02 0.02 0.03 0.09 0.13 0.14 0.10 0.03 0.00 0.00 0.00 0.00 0.00 0.00 0.00 0.00 0.00 0.00 0.00 0.00 0.00 0.00 0.00 0.00 0.00 0.00 0.00 0.00 0.00 0.00 0.00 0.00 0.00 0.00
0.09 0.02 0.02 0.08 0.27 0.35 0.35 0.29 0.18 0.21 0.08 0.03 0.02 0.01 0.00 0.00 0.00 0.00 0.00 0.00 0.00 0.01 0.06 0.22 0.29 0.13 0.01 0.00 0.00 0.00 0.00 0.00 0.00 0.00 0.00 0.00 0.00 0.00 0.00 0.00 0.00 0.00 0.00 0.00 0.00 0.00 0.00 0.00 0.00 0.00 0.00 0.00 0.00 0.00
0.14 0.13 0.10 0.12 0.37 0.44 0.56 0.38 0.28 0.16 0.05 0.01 0.00 0.00 0.00 0.00 0.00 0.00 0.00 0.00 0.00 0.01 0.08 0.14 0.05 0.00 0.00 0.00 0.00 0.00 0.00 0.00 0.00 0.00 0.00 0.00 0.00 0.00 0.00 0.00 0.00 0.00 0.00 0.00 0.00 0.00 0.00 0.00 0.00 0.00 0.00 0.00 0.00 0.00
0.18 0.07 0.20 0.32 0.41 0.61 0.60 0.17 0.15 0.13 0.03 0.00 0.00 0.00 0.00 0.00 0.00 0.00 0.00 0.00 0.00 0.03 0.02 0.00 0.00 0.00 0.00 0.00 0.00 0.00 0.00 0.00 0.00 0.00 0.00 0.00 0.00 0.00 0.00 0.00 0.00 0.00 0.00 0.00 0.00 0.00 0.00 0.00 0.00 0.00 0.00 0.00 0.00 0.00
0.04 0.10 0.15 0.19 0.53 0.60 0.54 0.32 0.22 0.11 0.08 0.05 0.01 0.00 0.00 0.00 0.00 0.00 0.00 0.00 0.00 0.00 0.00 0.00 0.00 0.00 0.00 0.00 0.00 0.00 0.00 0.00 0.00 0.00 0.00 0.00 0.00 0.00 0.00 0.00 0.00 0.00 0.00 0.00 0.00 0.00 0.00 0.00 0.00 0.00 0.00 0.00 0.00 0.00
0.21 0.18 0.31 0.24 0.35 0.33 0.23 0.05 0.08 0.06 0.07 0.05 0.02 0.01 0.00 0.00 0.00 0.00 0.00 0.00 0.00 0.00 0.00 0.00 0.00 0.00 0.00 0.00 0.00 0.00 0.00 0.00 0.00 0.00 0.00 0.00 0.00 0.00 0.00 0.00 0.00 0.00 0.00 0.00 0.00 0.01 0.01 0.00 0.00 0.01 0.02 0.02 0.02 0.03
0.50 0.56 0.48 0.50 0.26 0.16 0.09 0.05 0.04 0.02 0.04 0.05 0.03 0.01 0.00 0.00 0.00 0.00 0.00 0.00 0.00 0.00 0.00 0.00 0.00 0.00 0.00 0.00 0.00 0.00 0.00 0.00 0.00 0.00 0.00 0.00 0.00 0.00 0.00 0.00 0.00 0.00 0.00 0.01 0.03 0.02 0.02 0.02 0.01 0.04 0.05 0.05 0.04 0.03
0.92 0.80 0.39 0.32 0.20 0.14 0.07 0.04 0.03 0.02 0.01 0.00 0.00 0.00 0.00 0.00 0.00 0.00 0.00 0.00 0.00 0.00 0.00 0.00 0.00 0.00 0.00 0.00 0.00 0.00 0.00 0.00 0.00 0.00 0.00 0.00 0.00 0.00 0.00 0.00 0.00 0.00 0.01 0.14 0.17 0.08 0.06 0.04 0.07 0.07 0.06 0.05 0.04 0.02
0.48 0.17 0.35 0.14 0.08 0.03 0.02 0.01 0.00 0.00 0.00 0.01 0.00 0.00 0.00 0.00 0.00 0.00 0.00 0.00 0.00 0.00 0.00 0.00 0.00 0.00 0.00 0.00 0.00 0.00 0.00 0.00 0.00 0.00 0.00 0.00 0.00 0.00 0.01 0.02 0.02 0.00 0.02 0.25 0.30 0.18 0.11 0.07 0.10 0.08 0.07 0.03 0.03 0.03
0.20 0.07 0.04 0.03 0.03 0.02 0.02 0.00 0.00 0.00 0.01 0.00 0.00 0.00 0.00 0.03 0.01 0.00 0.00 0.00 0.00 0.00 0.00 0.00 0.00 0.00 0.00 0.00 0.00 0.00 0.00 0.00 0.00 0.00 0.00 0.00 0.00 0.01 0.12 0.30 0.20 0.04 0.06 0.28 0.30 0.21 0.15 0.09 0.10 0.08 0.05 0.02 0.02 0.01
0.03 0.00 0.01 0.01 0.00 0.00 0.00 0.00 0.00 0.00 0.00 0.00 0.00 0.00 0.00 0.00 0.00 0.00 0.00 0.00 0.00 0.00 0.00 0.00 0.00 0.00 0.00 0.00 0.00 0.00 0.00 0.00 0.00 0.01 0.01 0.01 0.01 0.13 0.22 0.23 0.17 0.15 0.18 0.21 0.23 0.19 0.16 0.12 0.08 0.06 0.04 0.04 0.02 0.01
0.04 0.00 0.00 0.00 0.00 0.00 0.00 0.00 0.00 0.00 0.00 0.00 0.00 0.00 0.00 0.00 0.00 0.00 0.00 0.00 0.00 0.00 0.00 0.00 0.00 0.01 0.01 0.01 0.01 0.02 0.05 0.10 0.18 0.13 0.03 0.02 0.04 0.10 0.25 0.23 0.20 0.19 0.21 0.19 0.18 0.22 0.18 0.15 0.10 0.08 0.04 0.03 0.04 0.08
0.00 0.00 0.00 0.00 0.00 0.00 0.00 0.00 0.00 0.00 0.00 0.00 0.00 0.00 0.00 0.00 0.00 0.00 0.00 0.00 0.00 0.00 0.01 0.03 0.06 0.09 0.07 0.05 0.05 0.02 0.08 0.18 0.18 0.22 0.15 0.08 0.09 0.11 0.16 0.19 0.20 0.21 0.23 0.23 0.20 0.20 0.23 0.17 0.12 0.11 0.12 0.12 0.11 0.14
0.00 0.00 0.00 0.00 0.00 0.00 0.00 0.00 0.00 0.00 0.00 0.00 0.00 0.00 0.00 0.00 0.00 0.00 0.00 0.01 0.03 0.07 0.10 0.07 0.05 0.12 0.18 0.09 0.10 0.09 0.07 0.10 0.14 0.16 0.19 0.19 0.17 0.18 0.18 0.19 0.22 0.22 0.22 0.22 0.22 0.21 0.21 0.15 0.09 0.08 0.06 0.04 0.06 0.08
0.00 0.00 0.00 0.00 0.00 0.00 0.00 0.00 0.00 0.00 0.00 0.00 0.00 0.00 0.00 0.00 0.00 0.00 0.01 0.09 0.17 0.20 0.19 0.16 0.10 0.07 0.11 0.11 0.11 0.14 0.13 0.10 0.09 0.11 0.14 0.15 0.13 0.12 0.12 0.12 0.11 0.13 0.17 0.18 0.17 0.17 0.15 0.12 0.10 0.09 0.08 0.10 0.10 0.11
0.00 0.00 0.00 0.00 0.00 0.00 0.00 0.00 0.00 0.00 0.00 0.00 0.00 0.00 0.01 0.04 0.04 0.05 0.09 0.12 0.14 0.10 0.05 0.04 0.05 0.07 0.09 0.09 0.11 0.12 0.12 0.10 0.08 0.08 0.08 0.09 0.08 0.06 0.04 0.02 0.02 0.02 0.06 0.13 0.14 0.12 0.10 0.09 0.08 0.07 0.07 0.08 0.11 0.12